Weather History for Volk, WI

Change the Weather History Date:

Friday, June 14, 2013

  Actual Average Record
Temperature  
Mean Temperature 61 °F -  
Max Temperature 77 °F 72 °F 87 °F (2007)
Min Temperature 45 °F 59 °F 41 °F (2011)
Degree Days  
Heating Degree Days 4    
Growing Degree Days 11 (Base 50)    
Moisture  
Dew Point 52 °F    
Average Humidity 87    
Maximum Humidity 100    
Minimum Humidity 44    
Precipitation  
Precipitation 0.00 in - - ()
Sea Level Pressure  
Sea Level Pressure 30.09 in    
Wind  
Wind Speed 1 mph (ESE)    
Max Wind Speed 12 mph    
Max Gust Speed -    
Visibility 6 miles    
Events Fog    
Averages and records for this station are not official NWS values.
T = Trace of Precipitation, MM = Missing Value Source: NWS Daily Summary

Daily Weather History Graph

Daily Weather History Graph

Search for Another Location

Airport:

Trip Planner

Search our weather history database for the weather conditions in past years. The results will help you decide how hot, cold, wet, or windy it might be!

Date:

Astronomy

Jun. 14, 2013 Rise Set
Actual Time 5:17 AM CDT 8:45 PM CDT
Civil Twilight 4:41 AM CDT 9:21 PM CDT
Nautical Twilight 3:54 AM CDT 10:08 PM CDT
Astronomical Twilight 2:53 AM CDT 11:09 PM CDT
Moon 11:03 AM CDT (6/14) No Moon Set
Length of Visible Light 16h 39m
Length of Day
15h 27m
Waxing Crescent, 30% of the Moon is Illuminated
Jun 14
Waxing Crescent
Jun 16
First Quarter
Jun 23
Full
Jun 29
Last Quarter
Jul 8
New

Hourly Weather History & Observations

Time (CDT) Temp. Windchill Dew Point Humidity Pressure Visibility Wind Dir Wind Speed Gust Speed Precip Events Conditions
12:58 AM 55.8 °F - 53.2 °F 91% 30.11 in 10.0 mi Calm Calm - 0.00 in   Clear
1:38 AM 50.0 °F - 50.0 °F 100% 30.10 in 5.0 mi Calm Calm - N/A   Clear
1:43 AM 50.0 °F - 50.0 °F 100% 30.10 in 4.0 mi Calm Calm - N/A   Clear
1:48 AM 50.0 °F - 50.0 °F 100% 30.10 in 6.0 mi Calm Calm - N/A   Clear
1:58 AM 51.1 °F - 51.1 °F 100% 30.12 in 6.0 mi Calm Calm - N/A   Clear
2:03 AM 51.8 °F - 51.8 °F 100% 30.10 in 10.0 mi Calm Calm - N/A   Clear
2:08 AM 51.8 °F - 51.8 °F 100% 30.11 in 7.0 mi Calm Calm - N/A   Clear
2:13 AM 50.0 °F - 50.0 °F 100% 30.11 in 4.0 mi Calm Calm - N/A   Clear
2:23 AM 51.8 °F - 51.8 °F 100% 30.11 in 2.5 mi Calm Calm - N/A   Clear
2:28 AM 51.8 °F - 51.8 °F 100% 30.11 in 1.2 mi Calm Calm - N/A   Clear
2:33 AM 50.0 °F - 50.0 °F 100% 30.11 in 0.8 mi Calm Calm - N/A   Clear
2:43 AM 50.0 °F - 50.0 °F 100% 30.11 in 1.5 mi Calm Calm - N/A   Clear
2:48 AM 50.0 °F - 50.0 °F 100% 30.11 in 5.0 mi Calm Calm - N/A   Clear
2:53 AM 51.8 °F - 51.8 °F 100% 30.11 in 10.0 mi Calm Calm - N/A   Clear
2:58 AM 51.6 °F - 51.6 °F 100% 30.12 in 10.0 mi Calm Calm - N/A   Clear
3:13 AM 50.0 °F - 50.0 °F 100% 30.11 in 6.0 mi Calm Calm - N/A   Clear
3:23 AM 50.0 °F - 50.0 °F 100% 30.11 in 2.5 mi Calm Calm - N/A   Clear
3:28 AM 50.0 °F - 50.0 °F 100% 30.11 in 1.2 mi Calm Calm - N/A   Clear
3:33 AM 50.0 °F - 50.0 °F 100% 30.11 in 1.5 mi Calm Calm - N/A   Clear
3:38 AM 50.0 °F - 50.0 °F 100% 30.11 in 2.5 mi Calm Calm - N/A   Clear
3:43 AM 50.0 °F - 50.0 °F 100% 30.11 in 4.0 mi Calm Calm - N/A   Clear
3:48 AM 50.0 °F - 50.0 °F 100% 30.11 in 10.0 mi Calm Calm - N/A   Clear
3:58 AM 48.7 °F - 48.7 °F 100% 30.11 in 10.0 mi Calm Calm - N/A   Clear
4:03 AM 48.2 °F - 48.2 °F 100% 30.10 in 2.5 mi East 4.6 mph - N/A   Clear
4:08 AM 48.2 °F - 48.2 °F 100% 30.10 in 1.0 mi East 4.6 mph - N/A   Clear
4:13 AM 48.2 °F - 48.2 °F 100% 30.09 in 0.8 mi East 2.3 mph - N/A   Clear
4:18 AM 50.0 °F - 50.0 °F 100% 30.10 in 2.5 mi Calm Calm - N/A   Clear
4:23 AM 50.0 °F - 50.0 °F 100% 30.10 in 10.0 mi ESE 1.2 mph - N/A   Clear
4:53 AM 48.2 °F - 48.2 °F 100% 30.10 in 1.0 mi Calm Calm - N/A   Clear
4:58 AM 48.2 °F - 48.2 °F 100% 30.11 in 0.2 mi Calm Calm - N/A Fog Fog
5:08 AM 48.2 °F - 48.2 °F 100% 30.10 in 0.5 mi Calm Calm - N/A Fog Fog
5:13 AM 48.2 °F - 48.2 °F 100% 30.10 in 0.8 mi Calm Calm - N/A   Clear
5:18 AM 48.2 °F - 48.2 °F 100% 30.10 in 1.5 mi Calm Calm - N/A   Clear
5:23 AM 50.0 °F - 50.0 °F 100% 30.10 in 10.0 mi Calm Calm - N/A   Clear
5:58 AM 45.7 °F 43.4 °F 45.7 °F 100% 30.14 in 5.0 mi WNW 4.6 mph - N/A   Clear
6:58 AM 54.1 °F - 54.1 °F 100% 30.14 in 10.0 mi Calm Calm - N/A   Clear
7:58 AM 60.8 °F - 53.6 °F 77% 30.17 in 10.0 mi SE 3.5 mph - N/A   Partly Cloudy
8:58 AM 64.4 °F - 51.8 °F 64% 30.15 in 10.0 mi SE 6.9 mph - N/A   Scattered Clouds
9:58 AM 71.6 °F - 51.8 °F 50% 30.14 in 10.0 mi East 6.9 mph - N/A   Scattered Clouds
10:58 AM 75.2 °F - 51.8 °F 44% 30.13 in 10.0 mi SE 8.1 mph - N/A   Scattered Clouds
11:58 AM 71.6 °F - 53.6 °F 53% 30.13 in 10.0 mi East 6.9 mph - N/A   Mostly Cloudy
12:58 PM 72.5 °F - 54.9 °F 54% 30.11 in 10.0 mi SSE 11.5 mph - N/A   Mostly Cloudy
1:58 PM 74.8 °F - 56.5 °F 53% 30.10 in 10.0 mi East 9.2 mph - N/A   Clear
2:58 PM 75.6 °F - 54.9 °F 48% 30.08 in 10.0 mi SSE 5.8 mph - N/A   Partly Cloudy
3:58 PM 77.5 °F - 55.9 °F 47% 30.05 in 10.0 mi SE 10.4 mph - N/A   Mostly Cloudy
4:58 PM 75.9 °F - 55.2 °F 49% 30.03 in 10.0 mi SSE 8.1 mph - N/A   Scattered Clouds
5:58 PM 75.6 °F - 57.7 °F 54% 30.01 in 10.0 mi SSE 6.9 mph - N/A   Mostly Cloudy
6:58 PM 74.1 °F - 57.4 °F 56% 30.02 in 10.0 mi SE 4.6 mph - N/A   Overcast
7:58 PM 72.3 °F - 57.9 °F 60% 30.01 in 10.0 mi Calm Calm - N/A   Partly Cloudy
8:58 PM 64.4 °F - 59.5 °F 84% 30.00 in 10.0 mi SE 2.3 mph - N/A   Clear
9:58 PM 63.9 °F - 58.6 °F 83% 29.99 in 10.0 mi SSE 4.6 mph - N/A   Partly Cloudy
10:58 PM 64.0 °F - 59.5 °F 85% 29.97 in 10.0 mi ESE 5.8 mph - N/A   Partly Cloudy
11:58 PM 66.2 °F - 59.7 °F 80% 29.99 in 10.0 mi NNE 1.2 mph - N/A   Clear